Hourly Data Report for October 21, 2013

All times are specified in Local Standard Time (LST). Add 1 hour to adjust for Daylight Saving Time where and when it is observed.

MONCTON INTL A
NEW BRUNSWICK

46°06'44.000" N
64°40'43.000" W
70.70 m
8103201
71705
YQM

Download Data

Hourly Data (October 2013)
Hourly Data Report for October 21, 2013
Temp Definition
°C
Dew Point Temp Definition
°C
Rel Hum Definition
%
Wind Dir Definition
10's deg

Wind Spd Definition
km/h
Visibility Definition
km
Stn Press Definition
kPa
Hmdx Definition


Wind Chill Definition


Weather Definition


TIME
00:00 Legend Double Dagger 5.4 2.9 84 25 16 24.1 99.87     LegendNANA
01:00 Legend Double Dagger 4.8 2.2 83 25 20 24.1 99.92     LegendNANA
02:00 Legend Double Dagger 4.0 1.6 84 23 12 24.1 99.95     Clear
03:00 Legend Double Dagger 4.0 1.2 82 24 18 24.1 100.02     LegendNANA
04:00 Legend Double Dagger 3.0 1.1 87 23 11 24.1 100.05     LegendNANA
05:00 Legend Double Dagger 2.8 1.0 88 24 13 24.1 100.09     Clear
06:00 Legend Double Dagger 2.2 0.9 91 23 17 24.1 100.14     LegendNANA
07:00 Legend Double Dagger 2.8 0.7 86 25 22 24.1 100.21     LegendNANA
08:00 Legend Double Dagger 4.4 1.3 80 25 23 24.1 100.30     Clear
09:00 Legend Double Dagger 6.2 1.7 73 26 27 24.1 100.32     LegendNANA
10:00 Legend Double Dagger 7.2 2.1 70 26 22 24.1 100.37     LegendNANA
11:00 Legend Double Dagger 8.1 2.4 67 26 28 24.1 100.38     Mostly Cloudy
12:00 Legend Double Dagger 8.9 2.7 65 25 28 24.1 100.41     LegendNANA
13:00 Legend Double Dagger 9.9 3.0 62 26 22 24.1 100.41     LegendNANA
14:00 Legend Double Dagger 11.0 3.3 59 23 26 24.1 100.44     Mostly Cloudy
15:00 Legend Double Dagger 11.3 3.4 58 27 20 24.1 100.49     LegendNANA
16:00 Legend Double Dagger 10.1 3.4 63 30 10 24.1 100.52     LegendNANA
17:00 Legend Double Dagger 10.0 4.0 66 29 5 24.1 100.58     Mostly Cloudy
18:00 Legend Double Dagger 9.4 4.2 70 22 7 24.1 100.65     LegendNANA
19:00 Legend Double Dagger 8.5 4.5 76 23 11 24.1 100.70     LegendNANA
20:00 Legend Double Dagger 7.1 2.8 74 25 10 24.1 100.70     Mainly Clear
21:00 Legend Double Dagger 5.8 3.3 84 19 10 24.1 100.77     LegendNANA
22:00 Legend Double Dagger 4.6 2.8 88 21 12 24.1 100.79     LegendNANA
23:00 Legend Double Dagger 3.2 2.0 92 22 13 24.1 100.81     Mainly Clear

Notes on Data Quality.

Legend

  • E = Estimated
  • M = Missing
  • NA = Not Available
  • ‡ = Partner data that is not subject to review by the National Climate Archives
Date modified: